Onalaska, WI

7:10 PM CST on February 27, 2017 (GMT -0600)
La Crosse Municipal

Weather History for KLSE - December, 2012

Change the Weather History Date:

Thursday, December 13, 2012

  Actual Average Record
Temperature  
Mean Temperature 32 °F 22 °F  
Max Temperature 42 °F 29 °F 56 °F (1891)
Min Temperature 22 °F 15 °F -21 °F (1901)
Degree Days  
Heating Degree Days 33 43  
Month to date heating degree days 411 527  
Since 1 July heating degree days 1900 2027  
Cooling Degree Days 0 0  
Month to date cooling degree days 0 0  
Year to date cooling degree days 1083 782  
Moisture  
Dew Point 22 °F    
Average Humidity 72    
Maximum Humidity 96    
Minimum Humidity 48    
Precipitation  
Precipitation 0.00 in 0.04 in 1.71 in (2015)
Month to date precipitation 0.65 0.67  
Year to date precipitation 25.35 32.37  
Snow  
Snow 0.00 in 0.40 in 2.40 in (1974)
Month to date snowfall 7.4 5.1  
Since 1 July snowfall 7.5 9.4  
Snow Depth 3.00 in    
Sea Level Pressure  
Sea Level Pressure 30.08 in    
Wind  
Wind Speed 7 mph (South)    
Max Wind Speed 22 mph    
Max Gust Speed 25 mph    
Visibility 10 miles    
Events      
T = Trace of Precipitation, MM = Missing Value Source: NWS Daily Summary

Daily Weather History Graph

Daily Weather History Graph

Search for Another Location

Airport or City:

Trip Planner

Search our weather history database for the weather conditions in past years. The results will help you decide how hot, cold, wet, or windy it might be!

Date:

Astronomy

Dec. 13, 2012 Rise Set
Actual Time 7:31 AM CST 4:27 PM CST
Civil Twilight 6:58 AM CST 5:00 PM CST
Nautical Twilight 6:21 AM CST 5:37 PM CST
Astronomical Twilight 5:46 AM CST 6:12 PM CST
Moon 7:39 AM CST (12/13) 5:11 PM CST (12/13)
Length of Visible Light 10h 02m
Length of Day
8h 56m
New Moon, 0% of the Moon is Illuminated
Dec 13
New Moon
Dec 19
First Quarter
Dec 28
Full
Jan 4
Last Quarter
Jan 11
New

Hourly Weather History & Observations

Time (CST) Temp. Windchill Dew Point Humidity Pressure Visibility Wind Dir Wind Speed Gust Speed Precip Events Conditions
12:53 AM 36.0 °F 28.0 °F 21.0 °F 55% 30.09 in 10.0 mi South 11.5 mph - N/A   Clear
1:53 AM 36.0 °F 29.0 °F 19.9 °F 52% 30.08 in 10.0 mi South 9.2 mph - N/A   Clear
2:53 AM 36.0 °F 27.1 °F 19.9 °F 52% 30.08 in 10.0 mi South 13.8 mph - N/A   Clear
3:53 AM 35.1 °F 26.4 °F 19.9 °F 54% 30.05 in 10.0 mi South 12.7 mph - N/A   Clear
4:53 AM 35.1 °F 27.9 °F 19.9 °F 54% 30.06 in 10.0 mi SSE 9.2 mph - N/A   Clear
6:53 AM 34.0 °F 28.0 °F 19.0 °F 54% 30.04 in 10.0 mi ESE 6.9 mph - N/A   Clear
7:53 AM 33.1 °F 27.7 °F 19.0 °F 56% 30.05 in 10.0 mi ESE 5.8 mph - N/A   Clear
8:53 AM 33.1 °F 26.1 °F 19.9 °F 59% 30.06 in 10.0 mi SSE 8.1 mph - N/A   Clear
9:53 AM 37.0 °F 28.5 °F 21.0 °F 52% 30.06 in 10.0 mi South 13.8 mph - N/A   Clear
10:53 AM 37.9 °F 28.9 °F 21.0 °F 51% 30.04 in 10.0 mi SSW 16.1 mph - N/A   Clear
11:53 AM 37.9 °F 30.0 °F 23.0 °F 55% 30.04 in 10.0 mi SSW 12.7 mph - N/A   Clear
12:53 PM 39.9 °F 33.4 °F 21.9 °F 49% 30.04 in 10.0 mi SW 10.4 mph - N/A   Clear
1:53 PM 39.9 °F 37.8 °F 24.1 °F 53% 30.04 in 10.0 mi SW 3.5 mph - N/A   Clear
2:53 PM 39.9 °F 33.9 °F 24.1 °F 53% 30.04 in 10.0 mi SSW 9.2 mph - N/A   Clear
3:53 PM 37.9 °F 35.5 °F 23.0 °F 55% 30.06 in 10.0 mi SW 3.5 mph - N/A   Clear
7:53 PM 30.0 °F - 25.0 °F 82% 30.12 in 10.0 mi Calm Calm - N/A   Clear
8:53 PM 28.0 °F - 24.1 °F 85% 30.13 in 10.0 mi Calm Calm - N/A   Clear
9:53 PM 26.1 °F - 23.0 °F 88% 30.14 in 10.0 mi Calm Calm - N/A   Clear
10:53 PM 23.0 °F - 21.0 °F 92% 30.15 in 9.0 mi Calm Calm - N/A   Clear
11:53 PM 25.0 °F - 21.9 °F 88% 30.17 in 7.0 mi Calm Calm - N/A   Clear